TimeCDT,TemperatureF,Dew PointF,Humidity,Sea Level PressureIn,VisibilityMPH,Wind Direction,Wind SpeedMPH,Gust SpeedMPH,PrecipitationIn,Events,Conditions,WindDirDegrees,DateUTC
12:15 AM,71.6,66.2,83,30.04,10.0,SE,5.8,-,N/A,,Clear,140,2013-05-31 05:15:00
12:35 AM,71.6,66.2,83,30.04,10.0,SE,5.8,-,N/A,,Clear,140,2013-05-31 05:35:00
12:55 AM,71.6,68.0,88,30.04,10.0,SE,6.9,-,N/A,,Clear,140,2013-05-31 05:55:00
1:15 AM,71.6,68.0,88,30.04,10.0,SE,4.6,-,N/A,,Partly Cloudy,140,2013-05-31 06:15:00
1:35 AM,71.6,68.0,88,30.02,10.0,SE,5.8,-,N/A,,Mostly Cloudy,140,2013-05-31 06:35:00
1:55 AM,71.6,68.0,88,30.02,10.0,SE,5.8,-,N/A,,Mostly Cloudy,130,2013-05-31 06:55:00
2:15 AM,71.6,68.0,88,30.01,10.0,SE,6.9,-,N/A,,Scattered Clouds,140,2013-05-31 07:15:00
2:35 AM,71.6,68.0,88,30.01,10.0,SE,5.8,-,N/A,,Clear,140,2013-05-31 07:35:00
2:55 AM,71.6,68.0,88,30.00,10.0,SE,5.8,-,N/A,,Clear,130,2013-05-31 07:55:00
3:15 AM,71.6,68.0,88,30.00,10.0,East,4.6,-,N/A,,Mostly Cloudy,100,2013-05-31 08:15:00
3:35 AM,71.6,68.0,88,29.99,10.0,SE,5.8,-,N/A,,Mostly Cloudy,130,2013-05-31 08:35:00
3:55 AM,71.6,66.2,83,29.99,9.0,ESE,5.8,-,N/A,,Partly Cloudy,110,2013-05-31 08:55:00
4:15 AM,69.8,66.2,88,30.00,7.0,ESE,4.6,-,N/A,,Clear,110,2013-05-31 09:15:00
4:35 AM,69.8,66.2,88,30.01,7.0,ESE,4.6,-,N/A,,Clear,110,2013-05-31 09:35:00
4:55 AM,71.6,66.2,83,30.01,9.0,SE,4.6,-,N/A,,Mostly Cloudy,130,2013-05-31 09:55:00
5:15 AM,71.6,66.2,83,30.02,8.0,ESE,4.6,-,N/A,,Mostly Cloudy,120,2013-05-31 10:15:00
5:35 AM,71.6,66.2,83,30.02,8.0,East,5.8,-,N/A,,Scattered Clouds,100,2013-05-31 10:35:00
5:55 AM,71.6,68.0,88,30.02,7.0,ESE,4.6,-,N/A,,Overcast,120,2013-05-31 10:55:00
6:15 AM,71.6,68.0,88,30.03,7.0,ESE,4.6,-,N/A,,Overcast,120,2013-05-31 11:15:00
6:35 AM,71.6,68.0,88,30.04,4.0,East,5.8,-,N/A,,Overcast,100,2013-05-31 11:35:00
6:55 AM,71.6,68.0,88,30.04,5.0,ESE,6.9,-,N/A,,Overcast,110,2013-05-31 11:55:00
7:15 AM,71.6,68.0,88,30.06,8.0,SSE,4.6,-,0.02,,Overcast,150,2013-05-31 12:15:00
7:35 AM,71.6,69.8,94,30.06,8.0,SE,3.5,-,0.02,,Overcast,130,2013-05-31 12:35:00
7:55 AM,73.4,69.8,88,30.06,9.0,ESE,4.6,-,0.02,,Overcast,120,2013-05-31 12:55:00
8:15 AM,73.4,71.6,94,30.06,10.0,SE,5.8,-,N/A,,Overcast,130,2013-05-31 13:15:00
8:35 AM,75.2,71.6,89,30.06,10.0,SSE,8.1,-,N/A,,Overcast,150,2013-05-31 13:35:00
8:55 AM,75.2,71.6,89,30.06,10.0,SSE,9.2,-,N/A,,Overcast,150,2013-05-31 13:55:00
9:15 AM,77.0,71.6,83,30.06,10.0,SSE,6.9,-,N/A,,Overcast,150,2013-05-31 14:15:00
9:35 AM,78.8,71.6,78,30.06,10.0,SE,9.2,-,N/A,,Mostly Cloudy,140,2013-05-31 14:35:00
9:55 AM,78.8,71.6,78,30.05,10.0,SSE,10.4,16.1,N/A,,Mostly Cloudy,160,2013-05-31 14:55:00
10:15 AM,80.6,71.6,74,30.04,10.0,SSE,9.2,-,N/A,,Scattered Clouds,160,2013-05-31 15:15:00
10:35 AM,82.4,71.6,70,30.04,10.0,SSE,10.4,-,N/A,,Scattered Clouds,150,2013-05-31 15:35:00
10:55 AM,82.4,71.6,70,30.04,10.0,SE,10.4,-,N/A,,Mostly Cloudy,140,2013-05-31 15:55:00
11:15 AM,82.4,71.6,70,30.04,10.0,South,9.2,-,N/A,,Scattered Clouds,180,2013-05-31 16:15:00
11:35 AM,84.2,71.6,66,30.04,10.0,South,9.2,-,N/A,,Scattered Clouds,170,2013-05-31 16:35:00
11:55 AM,84.2,71.6,66,30.03,10.0,South,6.9,-,N/A,,Scattered Clouds,180,2013-05-31 16:55:00
12:15 PM,84.2,71.6,66,30.03,10.0,South,9.2,-,N/A,,Mostly Cloudy,180,2013-05-31 17:15:00
12:35 PM,86.0,71.6,62,30.03,10.0,SSE,10.4,16.1,N/A,,Partly Cloudy,160,2013-05-31 17:35:00
12:55 PM,87.8,71.6,58,30.02,10.0,SSE,6.9,-,N/A,,Partly Cloudy,160,2013-05-31 17:55:00
1:15 PM,86.0,71.6,62,30.02,10.0,South,9.2,-,N/A,,Mostly Cloudy,190,2013-05-31 18:15:00
1:35 PM,87.8,71.6,58,30.02,10.0,SE,11.5,16.1,N/A,,Scattered Clouds,130,2013-05-31 18:35:00
1:55 PM,87.8,71.6,58,30.01,10.0,South,11.5,18.4,N/A,,Mostly Cloudy,180,2013-05-31 18:55:00
2:15 PM,87.8,69.8,55,30.01,10.0,SSE,6.9,17.3,N/A,,Mostly Cloudy,150,2013-05-31 19:15:00
2:35 PM,87.8,71.6,58,30.00,10.0,South,10.4,-,N/A,,Scattered Clouds,180,2013-05-31 19:35:00
2:55 PM,86.0,71.6,62,29.99,10.0,SSE,9.2,19.6,N/A,,Scattered Clouds,150,2013-05-31 19:55:00
3:15 PM,87.8,71.6,58,29.99,10.0,SSE,12.7,17.3,N/A,,Partly Cloudy,160,2013-05-31 20:15:00
3:35 PM,86.0,69.8,58,29.98,10.0,South,10.4,-,N/A,,Scattered Clouds,190,2013-05-31 20:35:00
3:55 PM,86.0,71.6,62,29.98,10.0,SSE,10.4,-,N/A,,Mostly Cloudy,160,2013-05-31 20:55:00
4:15 PM,87.8,73.4,62,29.98,10.0,SE,15.0,-,N/A,,Mostly Cloudy,140,2013-05-31 21:15:00
4:35 PM,84.2,71.6,66,29.98,10.0,SE,13.8,-,N/A,,Overcast,140,2013-05-31 21:35:00
4:55 PM,84.2,71.6,66,29.98,10.0,SSE,9.2,-,N/A,,Scattered Clouds,160,2013-05-31 21:55:00
5:15 PM,82.4,71.6,70,29.98,10.0,SE,13.8,21.9,N/A,,Mostly Cloudy,140,2013-05-31 22:15:00
5:35 PM,82.4,71.6,70,29.98,7.0,SE,11.5,-,N/A,,Scattered Clouds,140,2013-05-31 22:35:00
5:55 PM,82.4,73.4,74,29.98,10.0,SE,13.8,-,N/A,,Scattered Clouds,130,2013-05-31 22:55:00
6:15 PM,82.4,71.6,70,29.98,10.0,SSE,13.8,-,N/A,,Mostly Cloudy,150,2013-05-31 23:15:00
6:35 PM,82.4,71.6,70,29.98,10.0,SSE,11.5,-,N/A,,Scattered Clouds,150,2013-05-31 23:35:00
6:55 PM,80.6,71.6,74,29.99,10.0,SSE,11.5,-,N/A,,Partly Cloudy,150,2013-05-31 23:55:00
7:15 PM,78.8,71.6,78,29.99,10.0,SSE,12.7,-,N/A,,Clear,150,2013-06-01 00:15:00
7:35 PM,78.8,71.6,78,30.00,10.0,SE,12.7,-,N/A,,Clear,140,2013-06-01 00:35:00
7:55 PM,78.8,69.8,74,29.99,10.0,SSE,13.8,-,N/A,,Clear,150,2013-06-01 00:55:00
8:15 PM,77.0,69.8,78,29.99,10.0,SE,11.5,-,N/A,,Clear,140,2013-06-01 01:15:00
8:35 PM,75.2,69.8,83,30.00,10.0,SSE,8.1,-,N/A,,Clear,150,2013-06-01 01:35:00
8:55 PM,75.2,69.8,83,30.01,10.0,SE,8.1,-,N/A,,Partly Cloudy,130,2013-06-01 01:55:00
9:15 PM,75.2,69.8,83,30.01,10.0,SSE,8.1,-,N/A,,Clear,150,2013-06-01 02:15:00
9:35 PM,75.2,69.8,83,30.01,10.0,SSE,5.8,-,N/A,,Clear,160,2013-06-01 02:35:00
9:55 PM,75.2,69.8,83,30.01,10.0,SSE,8.1,-,N/A,,Clear,150,2013-06-01 02:55:00
10:15 PM,75.2,69.8,83,30.00,10.0,SSE,9.2,-,N/A,,Clear,150,2013-06-01 03:15:00
10:35 PM,73.4,69.8,88,30.00,10.0,SE,5.8,-,N/A,,Clear,140,2013-06-01 03:35:00
10:55 PM,73.4,69.8,88,29.99,10.0,SSE,8.1,-,N/A,,Mostly Cloudy,160,2013-06-01 03:55:00
11:15 PM,73.4,69.8,88,29.99,10.0,SSE,8.1,-,N/A,,Overcast,150,2013-06-01 04:15:00
11:35 PM,73.4,69.8,88,30.00,10.0,SSE,5.8,-,N/A,,Mostly Cloudy,150,2013-06-01 04:35:00
11:55 PM,73.4,69.8,88,30.00,10.0,SSE,6.9,-,N/A,,Mostly Cloudy,150,2013-06-01 04:55:00